CFG2PC EDDS-LGPZ

Flight info

Callsign CFG2PC
Flight time 1h 57m
Altitude 37000
Route ABTAL4B ABTAL L173 RIXED Y161 MAH L173 OTT M867 VAVOR DCT RADIZ DCT GIMIX DCT ALIVO DCT KULEN DCT UNIPA DCT VAKSU DCT RODON DCT LIMJA DCT PITAS UN732 KRK A14 MALED
Aircraft A321/M-SDE3FGHIRWY/LB1

Departure

Time 2026-05-06 10:55
Airport Stuttgart Airport (EDDS)

Arrival

Time 2026-05-06 12:53
Airport Aktion National Airport (LGPZ)
Time Latitude Longitude Altitude Speed Heading
2026-05-06 10:18 48.68907 9.19515 0 ft 0 kts 343°
2026-05-06 10:44 48.68890 9.19523 1289 ft 4 kts 348°
2026-05-06 10:44 48.68863 9.19528 1290 ft 4 kts
2026-05-06 10:44 48.68839 9.19521 1289 ft 4 kts 34°
2026-05-06 10:44 48.68827 9.19503 1289 ft 0 kts 71°
2026-05-06 10:47 48.68830 9.19518 1290 ft 4 kts 71°
2026-05-06 10:47 48.68843 9.19578 1285 ft 8 kts 73°
2026-05-06 10:47 48.68857 9.19651 1285 ft 6 kts 73°
2026-05-06 10:47 48.68868 9.19711 1287 ft 6 kts 73°
2026-05-06 10:48 48.68881 9.19778 1288 ft 9 kts 73°
2026-05-06 10:48 48.68856 9.19857 1287 ft 11 kts 147°
2026-05-06 10:48 48.68791 9.19952 1288 ft 13 kts 133°
2026-05-06 10:48 48.68764 9.20093 1287 ft 17 kts 73°
2026-05-06 10:49 48.68804 9.20293 1290 ft 23 kts 74°
2026-05-06 10:49 48.68851 9.20545 1290 ft 26 kts 74°
2026-05-06 10:49 48.68898 9.20797 1285 ft 25 kts 74°
2026-05-06 10:49 48.68944 9.21039 1285 ft 23 kts 73°
2026-05-06 10:50 48.68988 9.21267 1285 ft 22 kts 74°
2026-05-06 10:50 48.69042 9.21422 1285 ft 10 kts 10°
2026-05-06 10:50 48.69098 9.21433 1285 ft 7 kts 39°
2026-05-06 10:50 48.69120 9.21523 1291 ft 12 kts 73°
2026-05-06 10:51 48.69147 9.21670 1286 ft 17 kts 74°
2026-05-06 10:51 48.69186 9.21872 1285 ft 23 kts 73°
2026-05-06 10:51 48.69233 9.22127 1286 ft 28 kts 74°
2026-05-06 10:51 48.69290 9.22424 1285 ft 30 kts 73°
2026-05-06 10:52 48.69349 9.22732 1285 ft 31 kts 74°
2026-05-06 10:52 48.69409 9.23048 1289 ft 32 kts 74°
2026-05-06 10:52 48.69471 9.23372 1288 ft 32 kts 73°
2026-05-06 10:52 48.69534 9.23703 1285 ft 33 kts 73°
2026-05-06 10:53 48.69593 9.24016 1285 ft 27 kts 74°
2026-05-06 10:53 48.69578 9.24243 1288 ft 21 kts 117°
2026-05-06 10:53 48.69506 9.24312 1287 ft 4 kts 165°
2026-05-06 10:53 48.69483 9.24321 1289 ft 3 kts 166°
2026-05-06 10:54 48.69451 9.24332 1287 ft 6 kts 167°
2026-05-06 10:54 48.69395 9.24319 1287 ft 11 kts 226°
2026-05-06 10:54 48.69376 9.24239 1287 ft 14 kts 254°
2026-05-06 10:54 48.69344 9.24070 1285 ft 23 kts 254°
2026-05-06 10:55 48.69235 9.23489 1289 ft 91 kts 254°
2026-05-06 10:55 48.69007 9.22287 1286 ft 144 kts 254°
2026-05-06 10:55 48.68690 9.20661 1488 ft 169 kts 253°
2026-05-06 10:55 48.68315 9.18939 2014 ft 175 kts 251°
2026-05-06 10:56 48.67893 9.17186 2581 ft 178 kts 249°
2026-05-06 10:56 48.67433 9.15446 3171 ft 176 kts 247°
2026-05-06 10:56 48.66949 9.13770 3712 ft 171 kts 244°
2026-05-06 10:56 48.66236 9.12379 4210 ft 169 kts 216°
2026-05-06 10:57 48.65171 9.11644 4658 ft 170 kts 189°
2026-05-06 10:57 48.63994 9.11645 5085 ft 172 kts 169°
2026-05-06 10:57 48.62859 9.12274 5441 ft 177 kts 150°
2026-05-06 10:57 48.61912 9.13480 5877 ft 180 kts 128°
2026-05-06 10:58 48.61446 9.15275 6096 ft 195 kts 96°
2026-05-06 10:58 48.61467 9.17405 6245 ft 210 kts 89°
2026-05-06 10:58 48.61553 9.19694 6354 ft 227 kts 88°
2026-05-06 10:58 48.61661 9.22167 6457 ft 246 kts 88°
2026-05-06 10:59 48.61799 9.24831 6751 ft 260 kts 83°
2026-05-06 10:59 48.62265 9.27512 7154 ft 273 kts 69°
2026-05-06 10:59 48.63039 9.30208 7654 ft 283 kts 68°
2026-05-06 10:59 48.63830 9.32954 8331 ft 287 kts 68°
2026-05-06 11:00 48.64452 9.35830 9012 ft 289 kts 85°
2026-05-06 11:00 48.64338 9.38846 9642 ft 289 kts 109°
2026-05-06 11:00 48.63561 9.41674 10107 ft 298 kts 117°
2026-05-06 11:00 48.62652 9.44620 10236 ft 321 kts 117°
2026-05-06 11:01 48.61676 9.47779 10366 ft 342 kts 117°
2026-05-06 11:01 48.60660 9.51081 10622 ft 356 kts 117°
2026-05-06 11:01 48.59610 9.54508 11201 ft 361 kts 117°
2026-05-06 11:01 48.58549 9.57983 11825 ft 365 kts 117°
2026-05-06 11:02 48.57483 9.61482 12631 ft 369 kts 117°
2026-05-06 11:02 48.56404 9.65010 13476 ft 372 kts 118°
2026-05-06 11:02 48.55313 9.68575 14090 ft 376 kts 117°
2026-05-06 11:02 48.54210 9.72173 14645 ft 379 kts 117°
2026-05-06 11:03 48.53100 9.75792 15184 ft 382 kts 117°
2026-05-06 11:03 48.51979 9.79439 15727 ft 384 kts 117°
2026-05-06 11:03 48.50846 9.83106 16263 ft 387 kts 117°
2026-05-06 11:03 48.49703 9.86797 16786 ft 390 kts 117°
2026-05-06 11:04 48.48567 9.90461 17286 ft 393 kts 117°
2026-05-06 11:04 48.47409 9.94203 17802 ft 395 kts 117°
2026-05-06 11:04 48.46242 9.97974 18282 ft 398 kts 117°
2026-05-06 11:04 48.45066 10.01768 18709 ft 401 kts 118°
2026-05-06 11:05 48.43885 10.05570 19150 ft 403 kts 118°
2026-05-06 11:05 48.42690 10.09400 19593 ft 405 kts 118°
2026-05-06 11:05 48.41952 10.11762 19861 ft 407 kts 118°
2026-05-06 11:05 48.40746 10.15622 20289 ft 409 kts 118°
2026-05-06 11:06 48.39531 10.19506 20706 ft 411 kts 118°
2026-05-06 11:06 48.38308 10.23411 21116 ft 414 kts 118°
2026-05-06 11:06 48.37077 10.27335 21550 ft 416 kts 118°
2026-05-06 11:06 48.35835 10.31275 21970 ft 418 kts 118°
2026-05-06 11:07 48.34585 10.35234 22392 ft 421 kts 118°
2026-05-06 11:07 48.33324 10.39221 22808 ft 423 kts 118°
2026-05-06 11:07 48.32057 10.43225 23217 ft 426 kts 118°
2026-05-06 11:07 48.30784 10.47251 23574 ft 428 kts 118°
2026-05-06 11:08 48.29499 10.51306 23898 ft 430 kts 118°
2026-05-06 11:08 48.28207 10.55376 24222 ft 433 kts 118°
2026-05-06 11:08 48.26908 10.59463 24545 ft 435 kts 119°
2026-05-06 11:08 48.25602 10.63568 24867 ft 437 kts 119°
2026-05-06 11:09 48.24288 10.67693 25185 ft 439 kts 119°
2026-05-06 11:09 48.22967 10.71837 25495 ft 441 kts 119°
2026-05-06 11:09 48.21640 10.75993 25807 ft 443 kts 119°
2026-05-06 11:09 48.20302 10.80170 26105 ft 446 kts 119°
2026-05-06 11:10 48.18955 10.84366 26399 ft 448 kts 120°
2026-05-06 11:10 48.17599 10.88575 26688 ft 450 kts 120°
2026-05-06 11:10 48.16237 10.92801 26974 ft 452 kts 120°
2026-05-06 11:10 48.14865 10.97051 27254 ft 454 kts 120°
2026-05-06 11:11 48.13486 11.01314 27538 ft 456 kts 120°
2026-05-06 11:11 48.12098 11.05595 27837 ft 458 kts 120°
2026-05-06 11:11 48.10705 11.09889 28124 ft 460 kts 120°
2026-05-06 11:11 48.09302 11.14209 28393 ft 462 kts 120°
2026-05-06 11:12 48.07915 11.18475 28754 ft 462 kts 120°
2026-05-06 11:12 48.06511 11.22787 29139 ft 461 kts 120°
2026-05-06 11:12 48.05110 11.27094 29525 ft 461 kts 121°
2026-05-06 11:12 48.03706 11.31396 29894 ft 460 kts 121°
2026-05-06 11:13 48.02301 11.35687 30221 ft 460 kts 121°
2026-05-06 11:13 48.00893 11.39973 30522 ft 459 kts 121°
2026-05-06 11:13 47.99484 11.44250 30841 ft 459 kts 121°
2026-05-06 11:13 47.98075 11.48526 31156 ft 459 kts 121°
2026-05-06 11:14 47.96668 11.52790 31471 ft 458 kts 121°
2026-05-06 11:14 47.95262 11.57053 31788 ft 458 kts 121°
2026-05-06 11:14 47.93854 11.61309 32102 ft 457 kts 121°
2026-05-06 11:14 47.92443 11.65562 32409 ft 457 kts 121°
2026-05-06 11:15 47.91032 11.69799 32728 ft 456 kts 121°
2026-05-06 11:15 47.89621 11.74030 33030 ft 456 kts 121°
2026-05-06 11:15 47.88206 11.78262 33342 ft 456 kts 121°
2026-05-06 11:15 47.86791 11.82491 33638 ft 456 kts 121°
2026-05-06 11:16 47.85380 11.86712 33906 ft 456 kts 121°
2026-05-06 11:16 47.83971 11.90929 34148 ft 456 kts 121°
2026-05-06 11:16 47.82558 11.95155 34393 ft 455 kts 121°
2026-05-06 11:16 47.81145 11.99376 34620 ft 456 kts 121°
2026-05-06 11:17 47.79729 12.03593 34751 ft 456 kts 121°
2026-05-06 11:17 47.76895 12.11992 34784 ft 454 kts 121°
2026-05-06 11:18 47.74064 12.20363 34773 ft 453 kts 121°
2026-05-06 11:18 47.71221 12.28724 34776 ft 453 kts 121°
2026-05-06 11:19 47.68372 12.37075 34772 ft 454 kts 121°
2026-05-06 11:19 47.65514 12.45425 34775 ft 454 kts 121°
2026-05-06 11:20 47.62220 12.53305 34768 ft 445 kts 136°
2026-05-06 11:20 47.57690 12.59261 34766 ft 436 kts 149°
2026-05-06 11:21 47.52787 12.64558 34805 ft 436 kts 152°
2026-05-06 11:21 47.47933 12.69857 34758 ft 433 kts 152°
2026-05-06 11:22 47.43078 12.75146 34762 ft 434 kts 152°
2026-05-06 11:22 47.38213 12.80412 34769 ft 435 kts 152°
2026-05-06 11:23 47.33316 12.85695 34778 ft 436 kts 153°
2026-05-06 11:23 47.28418 12.90971 34787 ft 437 kts 152°
2026-05-06 11:24 47.23506 12.96247 34797 ft 437 kts 152°
2026-05-06 11:24 47.18592 13.01522 34805 ft 439 kts 152°
2026-05-06 11:25 47.13644 13.06814 34816 ft 440 kts 152°
2026-05-06 11:25 47.08678 13.12096 34834 ft 442 kts 152°
2026-05-06 11:26 47.03696 13.17383 34853 ft 443 kts 152°
2026-05-06 11:26 46.98701 13.22698 34873 ft 445 kts 152°
2026-05-06 11:27 46.93693 13.28019 34887 ft 445 kts 152°
2026-05-06 11:27 46.88679 13.33328 34899 ft 445 kts 152°
2026-05-06 11:28 46.83660 13.38620 34901 ft 445 kts 152°
2026-05-06 11:28 46.78638 13.43894 34895 ft 445 kts 152°
2026-05-06 11:29 46.73600 13.49170 34903 ft 446 kts 152°
2026-05-06 11:29 46.68557 13.54453 34902 ft 446 kts 152°
2026-05-06 11:30 46.63506 13.59742 34906 ft 447 kts 152°
2026-05-06 11:30 46.58458 13.65004 34909 ft 447 kts 152°
2026-05-06 11:31 46.53392 13.70256 34916 ft 447 kts 152°
2026-05-06 11:31 46.48362 13.75490 34922 ft 448 kts 152°
2026-05-06 11:32 46.43317 13.80786 34926 ft 447 kts 151°
2026-05-06 11:32 46.38268 13.86080 34928 ft 447 kts 151°
2026-05-06 11:33 46.33219 13.91334 34927 ft 447 kts 152°
2026-05-06 11:33 46.28167 13.96584 34932 ft 447 kts 152°
2026-05-06 11:34 46.23119 14.01817 34939 ft 447 kts 152°
2026-05-06 11:34 46.18071 14.07026 34950 ft 446 kts 152°
2026-05-06 11:35 46.13049 14.12206 34953 ft 447 kts 152°
2026-05-06 11:35 46.07998 14.17415 34954 ft 446 kts 152°
2026-05-06 11:36 46.02943 14.22611 34949 ft 446 kts 152°
2026-05-06 11:36 45.97890 14.27777 34957 ft 446 kts 152°
2026-05-06 11:37 45.92830 14.32938 34960 ft 446 kts 152°
2026-05-06 11:37 45.87776 14.38096 34960 ft 445 kts 151°
2026-05-06 11:38 45.82727 14.43236 34962 ft 445 kts 152°
2026-05-06 11:38 45.77671 14.48365 34960 ft 445 kts 152°
2026-05-06 11:39 45.72617 14.53486 34957 ft 445 kts 151°
2026-05-06 11:39 45.67564 14.58596 34959 ft 445 kts 152°
2026-05-06 11:40 45.62536 14.63664 34964 ft 445 kts 152°
2026-05-06 11:40 45.57736 14.68481 34959 ft 445 kts 152°
2026-05-06 11:41 45.52679 14.73568 34965 ft 445 kts 151°
2026-05-06 11:41 45.47695 14.78853 34973 ft 447 kts 148°
2026-05-06 11:42 45.43603 14.83469 34975 ft 448 kts 148°
2026-05-06 11:42 45.38756 14.88959 34985 ft 448 kts 148°
2026-05-06 11:43 45.33840 14.94410 34985 ft 447 kts 149°
2026-05-06 11:43 45.28901 14.99817 34986 ft 447 kts 149°
2026-05-06 11:44 45.21505 15.07900 34975 ft 447 kts 149°
2026-05-06 11:44 45.16585 15.13286 34967 ft 447 kts 148°
2026-05-06 11:45 45.11802 15.18861 34963 ft 449 kts 145°
2026-05-06 11:45 45.07109 15.24716 34961 ft 450 kts 144°
2026-05-06 11:46 45.02408 15.30561 34965 ft 450 kts 145°
2026-05-06 11:46 44.97655 15.36332 34969 ft 450 kts 146°
2026-05-06 11:47 44.92887 15.42048 34962 ft 450 kts 146°
2026-05-06 11:47 44.88129 15.47770 34970 ft 449 kts 146°
2026-05-06 11:48 44.83374 15.53489 34957 ft 449 kts 146°
2026-05-06 11:48 44.78610 15.59189 34965 ft 450 kts 146°
2026-05-06 11:49 44.73836 15.64894 34971 ft 450 kts 146°
2026-05-06 11:49 44.69093 15.70566 34967 ft 451 kts 145°
2026-05-06 11:50 44.64314 15.76272 34963 ft 451 kts 145°
2026-05-06 11:50 44.59508 15.81974 34969 ft 451 kts 145°
2026-05-06 11:51 44.54705 15.87667 34971 ft 451 kts 145°
2026-05-06 11:51 44.49939 15.93303 34973 ft 451 kts 145°
2026-05-06 11:52 44.45111 15.99006 34971 ft 451 kts 145°
2026-05-06 11:52 44.40339 16.04632 34974 ft 452 kts 145°
2026-05-06 11:53 44.35526 16.10298 34976 ft 452 kts 145°
2026-05-06 11:53 44.30705 16.15947 34976 ft 452 kts 145°
2026-05-06 11:54 44.25918 16.21551 34985 ft 452 kts 145°
2026-05-06 11:54 44.21100 16.27182 34985 ft 452 kts 145°
2026-05-06 11:55 44.16282 16.32797 34988 ft 452 kts 145°
2026-05-06 11:55 44.11463 16.38404 34988 ft 451 kts 144°
2026-05-06 11:56 44.06642 16.43999 34996 ft 451 kts 144°
2026-05-06 11:56 44.01799 16.49561 35008 ft 451 kts 146°
2026-05-06 11:57 43.96848 16.54877 35024 ft 449 kts 147°
2026-05-06 11:57 43.91832 16.60048 35028 ft 449 kts 148°
2026-05-06 11:58 43.86827 16.65230 35035 ft 449 kts 147°
2026-05-06 11:58 43.81844 16.70461 35033 ft 449 kts 147°
2026-05-06 11:59 43.76865 16.75707 35041 ft 450 kts 147°
2026-05-06 11:59 43.71869 16.80932 35042 ft 450 kts 147°
2026-05-06 12:00 43.66876 16.86132 35045 ft 450 kts 147°
2026-05-06 12:00 43.61879 16.91335 35042 ft 450 kts 147°
2026-05-06 12:01 43.56873 16.96539 35045 ft 450 kts 147°
2026-05-06 12:01 43.51872 17.01727 35056 ft 450 kts 147°
2026-05-06 12:02 43.46882 17.06885 35055 ft 450 kts 147°
2026-05-06 12:02 43.41857 17.12063 35054 ft 451 kts 147°
2026-05-06 12:03 43.36832 17.17233 35054 ft 451 kts 147°
2026-05-06 12:03 43.31806 17.22399 35053 ft 451 kts 147°
2026-05-06 12:04 43.26797 17.27538 35055 ft 452 kts 147°
2026-05-06 12:04 43.21754 17.32700 35056 ft 452 kts 147°
2026-05-06 12:05 43.16702 17.37857 35059 ft 453 kts 147°
2026-05-06 12:05 43.11646 17.43009 35059 ft 453 kts 147°
2026-05-06 12:06 43.06583 17.48153 35055 ft 453 kts 147°
2026-05-06 12:06 43.01509 17.53300 35064 ft 454 kts 147°
2026-05-06 12:07 42.96435 17.58437 35059 ft 453 kts 147°
2026-05-06 12:07 42.91388 17.63530 35064 ft 454 kts 147°
2026-05-06 12:08 42.86305 17.68649 35064 ft 454 kts 147°
2026-05-06 12:08 42.81220 17.73765 35065 ft 454 kts 147°
2026-05-06 12:09 42.76139 17.78886 35070 ft 454 kts 147°
2026-05-06 12:09 42.71056 17.83981 35070 ft 454 kts 147°
2026-05-06 12:10 42.65959 17.89067 35078 ft 454 kts 147°
2026-05-06 12:10 42.60870 17.94144 35086 ft 454 kts 147°
2026-05-06 12:11 42.55770 17.99228 35094 ft 455 kts 147°
2026-05-06 12:11 42.50675 18.04295 35095 ft 454 kts 148°
2026-05-06 12:12 42.45568 18.09358 35098 ft 455 kts 148°
2026-05-06 12:12 42.40494 18.14368 35097 ft 455 kts 148°
2026-05-06 12:13 42.35390 18.19399 35159 ft 453 kts 149°
2026-05-06 12:13 42.30288 18.24421 35090 ft 454 kts 148°
2026-05-06 12:14 42.25180 18.29454 35083 ft 454 kts 148°
2026-05-06 12:14 42.20066 18.34477 35079 ft 455 kts 148°
2026-05-06 12:15 42.14943 18.39498 35080 ft 456 kts 148°
2026-05-06 12:15 42.09802 18.44520 35084 ft 456 kts 148°
2026-05-06 12:16 42.04693 18.49503 35089 ft 456 kts 148°
2026-05-06 12:16 41.99557 18.54526 35086 ft 457 kts 147°
2026-05-06 12:17 41.94506 18.59752 35089 ft 458 kts 145°
2026-05-06 12:17 41.89506 18.65057 35092 ft 458 kts 145°
2026-05-06 12:18 41.84476 18.70320 35089 ft 458 kts 146°
2026-05-06 12:18 41.79423 18.75539 35087 ft 458 kts 146°
2026-05-06 12:19 41.74360 18.80739 35100 ft 459 kts 146°
2026-05-06 12:19 41.69334 18.85925 35094 ft 459 kts 146°
2026-05-06 12:20 41.64280 18.91138 35093 ft 459 kts 146°
2026-05-06 12:20 41.59213 18.96335 35094 ft 459 kts 146°
2026-05-06 12:21 41.54142 19.01511 35095 ft 459 kts 146°
2026-05-06 12:21 41.49064 19.06690 35098 ft 459 kts 146°
2026-05-06 12:22 41.43643 19.11052 35088 ft 452 kts 161°
2026-05-06 12:22 41.37755 19.13942 35090 ft 451 kts 163°
2026-05-06 12:23 41.31865 19.16816 35088 ft 451 kts 163°
2026-05-06 12:23 41.25967 19.19701 35090 ft 452 kts 163°
2026-05-06 12:24 41.20067 19.22572 35086 ft 452 kts 163°
2026-05-06 12:24 41.14168 19.25435 35082 ft 452 kts 163°
2026-05-06 12:25 41.08264 19.28297 35085 ft 452 kts 163°
2026-05-06 12:25 41.02384 19.31149 35087 ft 452 kts 163°
2026-05-06 12:26 40.96465 19.34015 35095 ft 453 kts 163°
2026-05-06 12:26 40.90542 19.36869 35093 ft 453 kts 163°
2026-05-06 12:27 40.84615 19.39708 35095 ft 453 kts 163°
2026-05-06 12:27 40.78687 19.42547 35094 ft 453 kts 163°
2026-05-06 12:28 40.72763 19.45383 35078 ft 453 kts 163°
2026-05-06 12:28 40.66830 19.48215 35083 ft 454 kts 163°
2026-05-06 12:29 40.63897 19.49621 34855 ft 452 kts 163°
2026-05-06 12:29 40.60900 19.51057 34185 ft 454 kts 163°
2026-05-06 12:29 40.57921 19.52477 33430 ft 456 kts 163°
2026-05-06 12:29 40.54976 19.53877 32880 ft 456 kts 163°
2026-05-06 12:30 40.51978 19.55304 32410 ft 459 kts 163°
2026-05-06 12:30 40.48971 19.56732 31946 ft 461 kts 163°
2026-05-06 12:30 40.45951 19.58162 31488 ft 462 kts 164°
2026-05-06 12:30 40.42918 19.59593 31054 ft 463 kts 164°
2026-05-06 12:31 40.39887 19.61021 30596 ft 464 kts 164°
2026-05-06 12:31 40.37873 19.61972 30307 ft 465 kts 164°
2026-05-06 12:31 40.34824 19.63413 29826 ft 466 kts 164°
2026-05-06 12:31 40.31772 19.64855 29326 ft 467 kts 163°
2026-05-06 12:32 40.28704 19.66305 28842 ft 469 kts 163°
2026-05-06 12:32 40.25632 19.67755 28333 ft 469 kts 163°
2026-05-06 12:32 40.22572 19.69196 27867 ft 466 kts 163°
2026-05-06 12:32 40.19524 19.70631 27402 ft 463 kts 163°
2026-05-06 12:33 40.16496 19.72054 26935 ft 461 kts 163°
2026-05-06 12:33 40.13478 19.73470 26483 ft 458 kts 163°
2026-05-06 12:33 40.10512 19.74858 26042 ft 456 kts 163°
2026-05-06 12:33 40.07531 19.76252 25619 ft 454 kts 163°
2026-05-06 12:34 40.04572 19.77641 25169 ft 451 kts 163°
2026-05-06 12:34 40.01621 19.79024 24749 ft 449 kts 163°
2026-05-06 12:34 39.98748 19.80366 24344 ft 447 kts 162°
2026-05-06 12:34 39.96379 19.81468 24010 ft 445 kts 162°
2026-05-06 12:35 39.93467 19.82820 23593 ft 443 kts 162°
2026-05-06 12:35 39.90570 19.84165 23103 ft 441 kts 162°
2026-05-06 12:35 39.87698 19.85523 22615 ft 438 kts 161°
2026-05-06 12:35 39.84865 19.86928 22154 ft 435 kts 161°
2026-05-06 12:36 39.82051 19.88364 21687 ft 432 kts 160°
2026-05-06 12:36 39.79273 19.89794 21236 ft 429 kts 160°
2026-05-06 12:36 39.76505 19.91214 20792 ft 426 kts 160°
2026-05-06 12:36 39.73757 19.92609 20344 ft 423 kts 161°
2026-05-06 12:37 39.71022 19.93987 19912 ft 420 kts 161°
2026-05-06 12:37 39.68303 19.95348 19480 ft 417 kts 161°
2026-05-06 12:37 39.65599 19.96699 19056 ft 415 kts 161°
2026-05-06 12:37 39.62917 19.98034 18637 ft 412 kts 161°
2026-05-06 12:38 39.60249 19.99363 18202 ft 410 kts 161°
2026-05-06 12:38 39.57598 20.00686 17723 ft 406 kts 161°
2026-05-06 12:38 39.54972 20.02001 17252 ft 403 kts 161°
2026-05-06 12:38 39.52365 20.03308 16803 ft 400 kts 161°
2026-05-06 12:39 39.49777 20.04598 16390 ft 397 kts 161°
2026-05-06 12:39 39.47208 20.05876 15989 ft 394 kts 161°
2026-05-06 12:39 39.44718 20.07348 15602 ft 394 kts 153°
2026-05-06 12:39 39.42435 20.09290 15240 ft 393 kts 143°
2026-05-06 12:40 39.40308 20.11502 14899 ft 391 kts 142°
2026-05-06 12:40 39.38195 20.13699 14564 ft 389 kts 143°
2026-05-06 12:40 39.36089 20.15879 14242 ft 387 kts 143°
2026-05-06 12:40 39.33989 20.18051 13910 ft 385 kts 143°
2026-05-06 12:41 39.31904 20.20204 13540 ft 383 kts 143°
2026-05-06 12:41 39.29832 20.22341 13183 ft 381 kts 143°
2026-05-06 12:41 39.27767 20.24468 12813 ft 379 kts 143°
2026-05-06 12:41 39.25713 20.26587 12453 ft 377 kts 143°
2026-05-06 12:42 39.23669 20.28694 12151 ft 375 kts 143°
2026-05-06 12:42 39.21737 20.30941 12111 ft 375 kts 134°
2026-05-06 12:42 39.20049 20.33523 12117 ft 377 kts 130°
2026-05-06 12:42 39.18389 20.36136 12093 ft 376 kts 130°
2026-05-06 12:43 39.16737 20.38724 11640 ft 373 kts 130°
2026-05-06 12:43 39.15092 20.41291 11182 ft 371 kts 130°
2026-05-06 12:43 39.13448 20.43851 10759 ft 370 kts 130°
2026-05-06 12:43 39.11814 20.46394 10327 ft 367 kts 130°
2026-05-06 12:44 39.10192 20.48916 9889 ft 364 kts 130°
2026-05-06 12:44 39.08592 20.51404 9414 ft 352 kts 130°
2026-05-06 12:44 39.07079 20.53761 8953 ft 331 kts 130°
2026-05-06 12:44 39.05657 20.55978 8464 ft 313 kts 130°
2026-05-06 12:45 39.04297 20.58092 7916 ft 301 kts 130°
2026-05-06 12:45 39.02986 20.60127 7376 ft 290 kts 130°
2026-05-06 12:45 39.00807 20.64461 6320 ft 298 kts 104°
2026-05-06 12:46 39.00691 20.67111 5757 ft 300 kts 80°
2026-05-06 12:46 39.01323 20.69676 5214 ft 302 kts 68°
2026-05-06 12:46 39.02093 20.72214 4656 ft 306 kts 68°
2026-05-06 12:46 39.02863 20.74749 4159 ft 298 kts 68°
2026-05-06 12:47 39.03583 20.77138 3941 ft 278 kts 68°
2026-05-06 12:47 39.04273 20.79435 3726 ft 275 kts 68°
2026-05-06 12:47 39.04959 20.81727 3499 ft 273 kts 68°
2026-05-06 12:47 39.05638 20.83994 3368 ft 271 kts 68°
2026-05-06 12:48 39.06211 20.86286 3229 ft 266 kts 81°
2026-05-06 12:48 39.06137 20.88614 3104 ft 257 kts 106°
2026-05-06 12:48 39.05396 20.90613 2966 ft 241 kts 129°
2026-05-06 12:48 39.04202 20.92013 2874 ft 225 kts 150°
2026-05-06 12:49 39.02795 20.92745 2743 ft 214 kts 171°
2026-05-06 12:49 39.01336 20.92826 2610 ft 203 kts 189°
2026-05-06 12:49 39.00073 20.92374 2511 ft 182 kts 206°
2026-05-06 12:49 38.98995 20.91626 2373 ft 170 kts 211°
2026-05-06 12:50 38.97984 20.90907 2237 ft 162 kts 212°
2026-05-06 12:50 38.97122 20.90001 2044 ft 158 kts 229°
2026-05-06 12:50 38.96509 20.88857 1818 ft 154 kts 244°
2026-05-06 12:50 38.96106 20.87585 1590 ft 154 kts 250°
2026-05-06 12:51 38.95717 20.86322 1384 ft 149 kts 248°
2026-05-06 12:51 38.95340 20.85094 1156 ft 146 kts 248°
2026-05-06 12:51 38.94954 20.83924 919 ft 141 kts 246°
2026-05-06 12:51 38.94553 20.82791 664 ft 137 kts 249°
2026-05-06 12:52 38.94178 20.81660 474 ft 138 kts 248°
2026-05-06 12:52 38.93833 20.80519 359 ft 136 kts 250°
2026-05-06 12:52 38.93464 20.79386 224 ft 137 kts 251°
2026-05-06 12:52 38.93110 20.78252 70 ft 137 kts 249°
2026-05-06 12:53 38.92771 20.77167 14 ft 117 kts 249°
2026-05-06 12:53 38.92535 20.76407 21 ft 67 kts 247°
2026-05-06 12:53 38.92433 20.76090 16 ft 12 kts 248°
2026-05-06 12:53 38.92424 20.76046 16 ft 1 kts 211°
2026-05-06 12:54 38.92419 20.76057 18 ft 1 kts 119°
2026-05-06 12:54 38.92427 20.76089 16 ft 7 kts 72°
2026-05-06 12:54 38.92447 20.76168 17 ft 12 kts 72°
2026-05-06 12:54 38.92487 20.76285 20 ft 18 kts 62°
2026-05-06 12:55 38.92550 20.76463 20 ft 27 kts 68°
2026-05-06 12:55 38.92621 20.76689 22 ft 27 kts 68°
2026-05-06 12:55 38.92690 20.76916 19 ft 29 kts 68°
2026-05-06 12:55 38.92768 20.77165 16 ft 29 kts 68°
2026-05-06 12:56 38.92810 20.77298 15 ft 7 kts 67°
2026-05-06 12:56 38.92833 20.77348 15 ft 6 kts 33°
2026-05-06 12:56 38.92876 20.77340 15 ft 7 kts 340°
2026-05-06 12:56 38.92930 20.77312 15 ft 7 kts 328°
2026-05-06 12:57 38.92948 20.77284 14 ft 5 kts 311°
2026-05-06 12:57 38.92982 20.77259 14 ft 6 kts 337°
2026-05-06 12:57 38.92998 20.77253 14 ft 0 kts 341°
2026-05-06 12:57 38.93002 20.77252 14 ft 2 kts 342°
2026-05-06 12:58 38.93015 20.77245 15 ft 1 kts 338°
2026-05-06 12:58 38.93017 20.77244 15 ft 0 kts 339°